Emporia, VA

4:41 PM EDT on April 28, 2017 (GMT -0400)
Emporia-Greensville Regional

Weather History for KEMV - December, 2011

Change the Weather History Date:

Sunday, December 11, 2011

  Actual Average Record
Temperature  
Mean Temperature 36 °F -  
Max Temperature 44 °F 54 °F 69 °F (2015)
Min Temperature 28 °F 31 °F 18 °F (1989)
Degree Days  
Heating Degree Days 29    
Moisture  
Dew Point 24 °F    
Average Humidity 67    
Maximum Humidity 100    
Minimum Humidity 39    
Precipitation  
Precipitation 0.00 in - - ()
Sea Level Pressure  
Sea Level Pressure 30.60 in    
Wind  
Wind Speed 4 mph (North)    
Max Wind Speed 10 mph    
Max Gust Speed -    
Visibility 10 miles    
Events      
Averages and records for this station are not official NWS values.
T = Trace of Precipitation, MM = Missing Value Source: NWS Daily Summary

Daily Weather History Graph

Daily Weather History Graph

Search for Another Location

Airport or City:

Trip Planner

Search our weather history database for the weather conditions in past years. The results will help you decide how hot, cold, wet, or windy it might be!

Date:

Astronomy

Dec. 11, 2011 Rise Set
Actual Time 7:11 AM EST 4:54 PM EST
Civil Twilight 6:43 AM EST 5:22 PM EST
Nautical Twilight 6:10 AM EST 5:55 PM EST
Astronomical Twilight 5:39 AM EST 6:26 PM EST
Moon 6:02 PM EST (12/11) 7:58 AM EST (12/11)
Length of Visible Light 10h 39m
Length of Day
9h 42m
Full, 99% of the Moon is Illuminated
Dec 11
Full
Dec 17
Last Quarter
Dec 24
New
Jan 1
First Quarter
Jan 9
Full

Hourly Weather History & Observations

Time (EST) Temp. Windchill Dew Point Humidity Pressure Visibility Wind Dir Wind Speed Gust Speed Precip Events Conditions
12:15 AM 28.4 °F - 28.4 °F 100% 30.52 in 10.0 mi Calm Calm - N/A   Unknown
12:35 AM 28.4 °F 24.6 °F 28.4 °F 100% 30.52 in 10.0 mi NW 3.5 mph - N/A   Unknown
12:55 AM 28.4 °F 22.2 °F 26.6 °F 93% 30.52 in - NW 5.8 mph - N/A   Unknown
1:15 AM 30.2 °F 25.4 °F 26.6 °F 86% 30.53 in 10.0 mi NNW 4.6 mph - N/A   Unknown
1:35 AM 30.2 °F 24.3 °F 26.6 °F 86% 30.54 in 10.0 mi NW 5.8 mph - N/A   Unknown
1:55 AM 30.2 °F 25.4 °F 26.6 °F 86% 30.54 in 10.0 mi NNW 4.6 mph - N/A   Unknown
2:15 AM 32.0 °F 27.5 °F 26.6 °F 80% 30.54 in 10.0 mi NNW 4.6 mph - N/A   Unknown
2:35 AM 32.0 °F 27.5 °F 24.8 °F 75% 30.55 in 10.0 mi NNW 4.6 mph - N/A   Unknown
2:55 AM 32.0 °F 26.4 °F 23.0 °F 69% 30.55 in - NNW 5.8 mph - N/A   Unknown
3:15 AM 32.0 °F 25.6 °F 23.0 °F 69% 30.56 in 10.0 mi NNW 6.9 mph - N/A   Unknown
3:35 AM 32.0 °F 26.4 °F 23.0 °F 69% 30.56 in 10.0 mi NNW 5.8 mph - N/A   Unknown
4:15 AM 30.2 °F 24.3 °F 23.0 °F 75% 30.56 in 10.0 mi NNW 5.8 mph - N/A   Unknown
4:35 AM 30.2 °F 25.4 °F 21.2 °F 69% 30.56 in 10.0 mi NNW 4.6 mph - N/A   Unknown
4:55 AM 30.2 °F 24.3 °F 21.2 °F 69% 30.57 in 10.0 mi NNW 5.8 mph - N/A   Unknown
5:15 AM 30.2 °F 25.4 °F 21.2 °F 69% 30.57 in - NNW 4.6 mph - N/A   Unknown
5:35 AM 30.2 °F 25.4 °F 21.2 °F 69% 30.58 in 10.0 mi NNW 4.6 mph - N/A   Unknown
5:55 AM 30.2 °F 24.3 °F 21.2 °F 69% 30.58 in 10.0 mi NNW 5.8 mph - N/A   Unknown
6:15 AM 30.2 °F 24.3 °F 21.2 °F 69% 30.59 in 10.0 mi NNW 5.8 mph - N/A   Unknown
6:35 AM 30.2 °F 24.3 °F 21.2 °F 69% 30.60 in 10.0 mi NNW 5.8 mph - N/A   Unknown
6:55 AM 28.4 °F 23.3 °F 21.2 °F 74% 30.61 in 10.0 mi NNW 4.6 mph - N/A   Unknown
7:15 AM 28.4 °F - 21.2 °F 74% 30.62 in 10.0 mi Calm Calm - N/A   Unknown
7:35 AM 28.4 °F - 21.2 °F 74% 30.62 in 10.0 mi Calm Calm - N/A   Unknown
7:55 AM 28.4 °F 23.3 °F 23.0 °F 80% 30.63 in 10.0 mi NW 4.6 mph - N/A   Unknown
8:15 AM 30.2 °F 24.3 °F 23.0 °F 75% 30.64 in 10.0 mi NNW 5.8 mph - N/A   Unknown
8:35 AM 32.0 °F 27.5 °F 23.0 °F 69% 30.65 in 10.0 mi NNW 4.6 mph - N/A   Unknown
8:55 AM 32.0 °F 25.6 °F 24.8 °F 75% 30.66 in 10.0 mi North 6.9 mph - N/A   Unknown
9:15 AM 33.8 °F 27.0 °F 26.6 °F 75% 30.67 in 10.0 mi North 8.1 mph - N/A   Unknown
9:35 AM 35.6 °F 29.9 °F 26.6 °F 70% 30.68 in 10.0 mi North 6.9 mph - N/A   Unknown
9:55 AM 35.6 °F 29.2 °F 26.6 °F 70% 30.69 in 10.0 mi North 8.1 mph - N/A   Unknown
10:15 AM 37.4 °F 32.1 °F 26.6 °F 65% 30.69 in 10.0 mi North 6.9 mph - N/A   Unknown
10:35 AM 37.4 °F 31.4 °F 26.6 °F 65% 30.68 in - North 8.1 mph - N/A   Unknown
10:55 AM 39.2 °F 33.0 °F 26.6 °F 61% 30.68 in 10.0 mi North 9.2 mph - N/A   Unknown
11:15 AM 39.2 °F 34.2 °F 23.0 °F 52% 30.67 in 10.0 mi North 6.9 mph - N/A   Unknown
11:35 AM 41.0 °F 36.4 °F 23.0 °F 49% 30.67 in 10.0 mi North 6.9 mph - N/A   Unknown
11:55 AM 41.0 °F 35.2 °F 23.0 °F 49% 30.65 in 10.0 mi NNW 9.2 mph - N/A   Unknown
12:15 PM 41.0 °F 34.7 °F 21.2 °F 45% 30.63 in 10.0 mi North 10.4 mph - N/A   Unknown
12:35 PM 42.8 °F 38.0 °F 21.2 °F 42% 30.64 in 10.0 mi North 8.1 mph - N/A   Unknown
12:55 PM 42.8 °F 37.0 °F 21.2 °F 42% 30.63 in 10.0 mi NNE 10.4 mph - N/A   Unknown
1:15 PM 42.8 °F 37.5 °F 21.2 °F 42% 30.61 in - NNW 9.2 mph - N/A   Unknown
1:35 PM 44.6 °F 40.2 °F 21.2 °F 39% 30.61 in 10.0 mi North 8.1 mph - N/A   Unknown
1:55 PM 44.6 °F 40.2 °F 21.2 °F 39% 30.60 in 10.0 mi NNE 8.1 mph - N/A   Unknown
2:15 PM 44.6 °F 41.4 °F 21.2 °F 39% 30.60 in 10.0 mi North 5.8 mph - N/A   Unknown
2:35 PM 44.6 °F 40.7 °F 21.2 °F 39% 30.60 in 10.0 mi NNE 6.9 mph - N/A   Unknown
2:55 PM 42.8 °F 38.0 °F 21.2 °F 42% 30.60 in 10.0 mi North 8.1 mph - N/A   Unknown
3:15 PM 44.6 °F 43.1 °F 21.2 °F 39% 30.60 in 10.0 mi NNE 3.5 mph - N/A   Unknown
3:35 PM 42.8 °F 39.3 °F 21.2 °F 42% 30.60 in 10.0 mi North 5.8 mph - N/A   Unknown
3:55 PM 42.8 °F 39.3 °F 21.2 °F 42% 30.59 in 10.0 mi North 5.8 mph - N/A   Unknown
4:15 PM 42.8 °F 41.1 °F 23.0 °F 46% 30.59 in - NE 3.5 mph - N/A   Unknown
4:35 PM 41.0 °F 39.0 °F 21.2 °F 45% 30.59 in 10.0 mi North 3.5 mph - N/A   Unknown
4:55 PM 39.2 °F - 23.0 °F 52% 30.59 in - Calm Calm - N/A   Unknown
5:15 PM 35.6 °F - 28.4 °F 75% 30.59 in 10.0 mi Calm Calm - N/A   Unknown
5:35 PM 33.8 °F - 26.6 °F 75% 30.60 in 10.0 mi Calm Calm - N/A   Unknown
6:15 PM 32.0 °F - 26.6 °F 80% 30.60 in 10.0 mi Calm Calm - N/A   Unknown
6:35 PM 32.0 °F - 24.8 °F 75% 30.60 in 10.0 mi Calm Calm - N/A   Unknown
6:55 PM 32.0 °F - 24.8 °F 75% 30.60 in 10.0 mi Calm Calm - N/A   Unknown
7:15 PM 32.0 °F - 24.8 °F 75% 30.61 in 10.0 mi Calm Calm - N/A   Unknown
7:35 PM 32.0 °F - 26.6 °F 80% 30.61 in 10.0 mi Calm Calm - N/A   Unknown
7:55 PM 32.0 °F - 26.6 °F 80% 30.61 in 10.0 mi Calm Calm - N/A   Unknown
8:15 PM 30.2 °F - 26.6 °F 86% 30.61 in 10.0 mi Calm Calm - N/A   Unknown
8:35 PM 30.2 °F - 26.6 °F 86% 30.61 in 10.0 mi Calm Calm - N/A   Unknown
8:55 PM 30.2 °F 26.7 °F 26.6 °F 86% 30.61 in 10.0 mi NNE 3.5 mph - N/A   Unknown
9:15 PM 30.2 °F - 26.6 °F 86% 30.61 in 10.0 mi Calm Calm - N/A   Unknown
9:35 PM 32.0 °F 28.7 °F 24.8 °F 75% 30.61 in 10.0 mi North 3.5 mph - N/A   Unknown
9:55 PM 30.2 °F - 26.6 °F 86% 30.61 in 10.0 mi Calm Calm - N/A   Unknown
10:15 PM 30.2 °F 26.7 °F 26.6 °F 86% 30.61 in 10.0 mi NW 3.5 mph - N/A   Unknown
10:35 PM 28.4 °F 23.3 °F 24.8 °F 86% 30.61 in 10.0 mi NNW 4.6 mph - N/A   Unknown
10:55 PM 30.2 °F 24.3 °F 24.8 °F 80% 30.62 in 10.0 mi NNW 5.8 mph - N/A   Unknown
11:15 PM 30.2 °F 24.3 °F 26.6 °F 86% 30.62 in 10.0 mi NNW 5.8 mph - N/A   Unknown
11:35 PM 30.2 °F 25.4 °F 26.6 °F 86% 30.61 in 10.0 mi NNW 4.6 mph - N/A   Unknown
11:55 PM 30.2 °F 25.4 °F 26.6 °F 86% 30.61 in 10.0 mi NW 4.6 mph - N/A   Unknown